Bedford, MA

3:43 PM EDT on June 22, 2018 (GMT -0400)
Hanscom

Weather History for KBED - October, 2000

Change the Weather History Date:

Sunday, October 15, 2000

  Actual Average Record
Temperature  
Mean Temperature 64 °F -  
Max Temperature 75 °F 64 °F 81 °F (1975)
Min Temperature 54 °F 41 °F 26 °F (2002)
Degree Days  
Heating Degree Days 2    
Growing Degree Days 14 (Base 50)    
Moisture  
Dew Point 49 °F    
Average Humidity 61    
Maximum Humidity 86    
Minimum Humidity 41    
Precipitation  
Precipitation 0.00 in - - ()
Sea Level Pressure  
Sea Level Pressure 30.05 in    
Wind  
Wind Speed 8 mph (WNW)    
Max Wind Speed 14 mph    
Max Gust Speed -    
Visibility 10 miles    
Events      
Averages and records for this station are not official NWS values.
T = Trace of Precipitation, MM = Missing Value Source: NWS Daily Summary

Daily Weather History Graph

Daily Weather History Graph

Search for Another Location

Airport or City:

Astronomy

Oct. 15, 2000 Rise Set
Actual Time 6:58 AM EDT 6:02 PM EDT
Civil Twilight 6:30 AM EDT 6:30 PM EDT
Nautical Twilight 5:57 AM EDT 7:03 PM EDT
Astronomical Twilight 5:24 AM EDT 7:35 PM EDT
Moon 7:48 PM EDT (10/15) 9:12 AM EDT (10/15)
Length of Visible Light 12h 00m
Length of Day
11h 03m
Waning Gibbous, 94% of the Moon is Illuminated
Oct 15
Waning Gibbous
Oct 20
Last Quarter
Oct 27
New
Nov 4
First Quarter
Nov 11
Full

Hourly Weather History & Observations

Time (EDT) Temp. Dew Point Humidity Pressure Visibility Wind Dir Wind Speed Gust Speed Precip Events Conditions
12:56 AM 62.1 °F 46.0 °F 56% 29.95 in 10.0 mi WSW 9.2 mph - N/A   Clear
1:56 AM 62.1 °F 45.0 °F 53% 29.95 in 10.0 mi WSW 5.8 mph - N/A   Clear
2:56 AM 60.1 °F 45.0 °F 57% 29.94 in 10.0 mi WSW 6.9 mph - N/A   Clear
3:56 AM 60.1 °F 44.1 °F 55% 29.94 in 10.0 mi West 6.9 mph - N/A   Clear
4:56 AM 59.0 °F 44.1 °F 58% 29.95 in 10.0 mi WSW 8.1 mph - N/A   Clear
5:56 AM 60.1 °F 45.0 °F 57% 29.96 in 10.0 mi WSW 5.8 mph - N/A   Clear
6:56 AM 57.9 °F 46.0 °F 65% 29.97 in 10.0 mi WSW 6.9 mph - N/A   Scattered Clouds
7:56 AM 55.0 °F 48.9 °F 80% 29.99 in 10.0 mi Variable 3.5 mph - N/A   Clear
8:56 AM 64.0 °F 51.1 °F 63% 30.01 in 10.0 mi West 5.8 mph - N/A   Clear
9:56 AM 66.9 °F 53.1 °F 61% 30.02 in 10.0 mi WNW 5.8 mph - N/A   Clear
10:56 AM 69.1 °F 54.0 °F 58% 30.02 in 10.0 mi Variable 4.6 mph - N/A   Mostly Cloudy
11:56 AM 73.0 °F 55.0 °F 53% 30.02 in 10.0 mi WNW 9.2 mph - N/A   Clear
12:56 PM 73.0 °F 51.1 °F 46% 30.01 in 10.0 mi NNW 9.2 mph - N/A   Scattered Clouds
1:56 PM 72.0 °F 53.1 °F 51% 30.01 in 10.0 mi WNW 4.6 mph - N/A   Scattered Clouds
2:56 PM 73.0 °F 52.0 °F 48% 30.02 in 10.0 mi WNW 10.4 mph - N/A   Clear
3:56 PM 73.0 °F 50.0 °F 44% 30.03 in 10.0 mi WNW 8.1 mph - N/A   Clear
4:56 PM 72.0 °F 46.9 °F 41% 30.05 in 10.0 mi NW 10.4 mph - N/A   Clear
5:56 PM 64.9 °F 51.1 °F 61% 30.10 in 10.0 mi ENE 12.7 mph - N/A   Clear
6:56 PM 62.1 °F 48.9 °F 62% 30.13 in 10.0 mi East 13.8 mph - N/A   Clear
7:56 PM 59.0 °F 48.9 °F 69% 30.17 in 10.0 mi ENE 9.2 mph - N/A   Clear
8:56 PM 55.0 °F 50.0 °F 83% 30.19 in 10.0 mi NE 4.6 mph - N/A   Partly Cloudy
9:56 PM 54.0 °F 48.9 °F 83% 30.22 in 10.0 mi NNE 3.5 mph - N/A   Mostly Cloudy
10:56 PM 54.0 °F 50.0 °F 86% 30.23 in 10.0 mi East 8.1 mph - N/A   Scattered Clouds
11:56 PM 55.0 °F 50.0 °F 83% 30.24 in 10.0 mi East 8.1 mph - N/A   Overcast